Home   Weather   Dakar   Past weeks

Flag for Senegal Past Weather in Dakar, Senegal — Yesterday and Last 2 Weeks

Now
72 °F

Sunny.


Feels Like: 74 °F
Forecast: N/A
Wind: 14 mph from North

Location: Dakar / Yoff

Current Time: Jan 19, 2017 at 7:37:00 pm

Latest Report: Jan 19, 2017 at 7:00 pm


Visibility: 10 mi

Pressure: 29.89 "Hg

Humidity: 73%

Dew Point: 63 °F

Location of DakarLocation

Past Weather in Dakar — Graph

°F

Dakar Temperature Yesterday

Maximum temperature yesterday: 77 °F (at 1:00 pm)
Minimum temperature yesterday: 64 °F (at 5:00 am)
Average temperature yesterday: 70 °F

High & Low Weather Summary for the Past Weeks

 TemperatureHumidityPressure
High88 °F (Jan 6, 1:00 pm)94% (Jan 7, 11:30 pm)30.01 "Hg (Jan 7, 11:30 pm)
Low64 °F (Jan 17, 5:30 am)12% (Jan 5, 11:00 am)29.80 "Hg (Jan 14, 3:30 pm)
Average73 °F58%29.90 "Hg
* Reported Jan 4 6:00 pm — Jan 19 6:00 pm, Dakar, Weather by CustomWeather, © 2017

Note: Actual official high and low records may vary slightly from our data, if they occured in-between our weather recording intervals... More about our weather records

Advertising

Dakar Weather History for the Previous 24 Hours

Scroll right to see more
 ConditionsComfort  
Time TempWeatherWind HumidityBarometerVisibility
6:00 pm
Thu, Jan 19
75 °FSunny.14 mph61%29.89 "Hg10 mi
5:30 pm75 °FSunny.15 mph61%29.89 "Hg10 mi
5:00 pm75 °FSunny.16 mph61%29.86 "Hg10 mi
4:30 pm77 °FSunny.16 mph54%29.86 "Hg10 mi
4:00 pm77 °FSunny.16 mph51%29.86 "Hg10 mi
3:30 pm77 °FSunny.16 mph51%29.89 "Hg10 mi
3:00 pm77 °FSunny.16 mph51%29.89 "Hg10 mi
2:30 pm77 °FSunny.15 mph51%29.89 "Hg10 mi
2:00 pm77 °FSunny.15 mph47%29.92 "Hg10 mi
1:30 pm77 °FSunny.12 mph42%29.92 "Hg10 mi
1:00 pm77 °FSunny.14 mph44%29.92 "Hg10 mi
12:30 pm75 °FSunny.13 mph44%29.95 "Hg10 mi
12:00 pm77 °FSunny.13 mph44%29.95 "Hg10 mi
11:30 am75 °FSunny.14 mph44%29.95 "Hg10 mi
11:00 am75 °FSunny.15 mph47%29.95 "Hg10 mi
10:30 am75 °FSunny.13 mph44%29.95 "Hg10 mi
10:00 am73 °FSunny.10 mph50%29.95 "Hg10 mi
9:30 am73 °FSunny.13 mph47%29.95 "Hg10 mi
9:00 am72 °FSunny.12 mph50%29.95 "Hg10 mi
8:30 am70 °FSunny.10 mph64%29.92 "Hg10 mi
8:00 am70 °FSunny.10 mph69%29.92 "Hg10 mi
7:30 am70 °FClear.10 mph73%29.92 "Hg10 mi
7:00 am70 °FClear.9 mph78%29.89 "Hg10 mi
6:30 am70 °FClear.10 mph78%29.89 "Hg10 mi
6:00 am68 °FClear.10 mph83%29.89 "Hg10 mi
5:30 am68 °FClear.10 mph83%29.89 "Hg10 mi
5:00 am68 °FClear.10 mph83%29.89 "Hg10 mi
4:00 am66 °FClear.9 mph88%29.89 "Hg10 mi
3:30 am66 °FClear.9 mph88%29.89 "Hg10 mi
3:00 am66 °FClear.9 mph88%29.89 "Hg10 mi
2:30 am64 °FClear.7 mph94%29.89 "Hg10 mi
2:00 am66 °FClear.5 mph94%29.89 "Hg10 mi
1:30 am64 °FClear.6 mph94%29.89 "Hg10 mi
1:00 am64 °FClear.N/A94%29.89 "Hg10 mi
12:30 am66 °FClear.6 mph88%29.89 "Hg10 mi
12:00 am66 °FClear.9 mph88%29.89 "Hg10 mi
11:30 pm
Wed, Jan 18
66 °FClear.9 mph88%29.89 "Hg10 mi
11:00 pm66 °FClear.9 mph88%29.92 "Hg10 mi
10:30 pm66 °FClear.8 mph88%29.89 "Hg10 mi
10:00 pm66 °FClear.7 mph88%29.89 "Hg10 mi
9:30 pm66 °FClear.7 mph88%29.89 "Hg10 mi
9:00 pm68 °FClear.7 mph83%29.86 "Hg10 mi
8:30 pm68 °FClear.8 mph83%29.86 "Hg10 mi
8:00 pm70 °FClear.8 mph78%29.86 "Hg10 mi
7:30 pm70 °FClear.7 mph73%29.86 "Hg10 mi
7:00 pm72 °FSunny.9 mph69%29.86 "Hg10 mi
Weather by CustomWeather, © 2017

See weather overviewHow to use our weather pages